Location: Unspecified
(0.0000°N, 0.0000°E)
Time: 02:15:00
(UTC+00:00)

Vanguard 2 Rocket - Pass Details

Date: 15 December 2018
Orbit: 554 x 3327 km, 32.9° (Epoch: 16 January)

Event Time Altitude Azimuth Distance (km) Brightness Sun altitude
Rises 22:48:41 0° 223° (SW) 7,014 11.8 -61.6°
Reaches altitude 10° 22:55:09 10° 212° (SSW) 5,634 11.2 -62.5°
Enters shadow 23:05:05 25° 176° (S) 3,737 10.0 -63.7°
Maximum altitude 23:07:23 26° 162° (SSE) 3,468 - -63.9°
Drops below altitude 10° 23:15:35 10° 109° (ESE) 3,728 - -64.8°
Sets 23:18:45 0° 96° (E) 4,336 - -65.1°
